| time (UTC) | temp F | wind direction | speed MPH | gust MPH | rain 1hr in | rain 24hr in | rain mn in | humidity % | barometer mb |
| 20260510173032 | 58 | 60 | 2.0 | 9.0 | 0.00 | 0.00 | 0.00 | 60 | 1015.0 |
| 20260510171533 | 58 | 94 | 5.0 | 11.0 | 0.00 | 0.00 | 0.00 | 58 | 1015.1 |
| 20260510170033 | 58 | 105 | 2.0 | 8.0 | 0.00 | 0.00 | 0.00 | 59 | 1015.3 |
| 20260510164531 | 58 | 115 | 3.0 | 8.0 | 0.00 | 0.00 | 0.00 | 60 | 1015.3 |
| 20260510163032 | 58 | 127 | 2.0 | 9.0 | 0.00 | 0.00 | 0.00 | 62 | 1015.4 |
| 20260510161530 | 58 | 92 | 2.0 | 8.0 | 0.00 | 0.00 | 0.00 | 64 | 1015.5 |
| 20260510160032 | 58 | 89 | 2.0 | 8.0 | 0.00 | 0.00 | 0.00 | 65 | 1015.7 |
| 20260510154534 | 58 | 95 | 3.0 | 10.0 | 0.00 | 0.00 | 0.00 | 63 | 1015.9 |
| 20260510153031 | 57 | 78 | 3.0 | 8.0 | 0.00 | 0.00 | 0.00 | 66 | 1015.9 |
| 20260510151534 | 57 | 167 | 3.0 | 10.0 | 0.00 | 0.00 | 0.00 | 67 | 1016.0 |
| 20260510150030 | 58 | 96 | 2.0 | 7.0 | 0.00 | 0.00 | 0.00 | 66 | 1016.1 |
| 20260510144532 | 58 | 86 | 2.0 | 5.0 | 0.00 | 0.00 | 0.00 | 66 | 1016.3 |
| 20260510143036 | 58 | 79 | 1.0 | 4.0 | 0.00 | 0.00 | 0.00 | 66 | 1016.4 |
| 20260510141533 | 58 | 96 | 1.0 | 4.0 | 0.00 | 0.00 | 0.00 | 66 | 1016.6 |
| 20260510140031 | 58 | 13 | 2.0 | 5.0 | 0.00 | 0.00 | 0.00 | 66 | 1016.7 |
| 20260510134531 | 58 | 34 | 3.0 | 7.0 | 0.00 | 0.00 | 0.00 | 66 | 1016.7 |
| 20260510133031 | 57 | 49 | 3.0 | 8.0 | 0.00 | 0.00 | 0.00 | 68 | 1017.1 |
| 20260510131533 | 56 | 49 | 3.0 | 10.0 | 0.00 | 0.00 | 0.00 | 69 | 1017.0 |
| 20260510130030 | 57 | 91 | 3.0 | 10.0 | 0.00 | 0.00 | 0.00 | 69 | 1017.2 |
| 20260510124536 | 57 | 103 | 2.0 | 8.0 | 0.00 | 0.00 | 0.00 | 70 | 1017.5 |
| 20260510123032 | 57 | 75 | 1.0 | 8.0 | 0.00 | 0.00 | 0.00 | 71 | 1017.4 |
| 20260510121530 | 57 | 84 | 2.0 | 8.0 | 0.00 | 0.00 | 0.00 | 69 | 1017.5 |
| 20260510120032 | 57 | 37 | 3.0 | 8.0 | 0.00 | 0.00 | 0.00 | 70 | 1017.7 |
| 20260510114528 | 57 | 104 | 3.0 | 7.0 | 0.00 | 0.00 | 0.00 | 70 | 1017.7 |
| 20260510113037 | 57 | 131 | 2.0 | 6.0 | 0.00 | 0.00 | 0.00 | 69 | 1017.9 |
| 20260510111536 | 57 | 127 | 1.0 | 6.0 | 0.00 | 0.00 | 0.00 | 70 | 1018.0 |
| 20260510110036 | 56 | 91 | 2.0 | 6.0 | 0.00 | 0.00 | 0.00 | 72 | 1018.1 |
| 20260510104532 | 56 | 72 | 3.0 | 8.0 | 0.00 | 0.00 | 0.00 | 72 | 1018.2 |
| 20260510103029 | 55 | 82 | 4.0 | 9.0 | 0.00 | 0.00 | 0.00 | 74 | 1018.2 |
| 20260510101533 | 55 | 105 | 3.0 | 9.0 | 0.00 | 0.00 | 0.00 | 75 | 1018.2 |
| 20260510100032 | 54 | 103 | 3.0 | 9.0 | 0.00 | 0.00 | 0.00 | 75 | 1018.3 |
| 20260510094529 | 54 | 86 | 2.0 | 8.0 | 0.00 | 0.00 | 0.00 | 76 | 1018.4 |
| 20260510093055 | 54 | 45 | 2.0 | 8.0 | 0.00 | 0.00 | 0.00 | 77 | 1018.5 |
| 20260510091530 | 54 | 81 | 3.0 | 8.0 | 0.00 | 0.00 | 0.00 | 76 | 1018.6 |
| 20260510090043 | 54 | 95 | 3.0 | 9.0 | 0.00 | 0.00 | 0.00 | 76 | 1018.6 |
| 20260510084532 | 55 | 86 | 2.0 | 9.0 | 0.00 | 0.00 | 0.00 | 76 | 1018.6 |
| 20260510083032 | 54 | 79 | 3.0 | 9.0 | 0.00 | 0.00 | 0.00 | 77 | 1018.7 |
| 20260510081532 | 53 | 65 | 4.0 | 10.0 | 0.00 | 0.00 | 0.00 | 79 | 1018.8 |
| 20260510080030 | 52 | 32 | 3.0 | 9.0 | 0.00 | 0.00 | 0.00 | 81 | 1018.6 |
| 20260510074533 | 52 | 66 | 3.0 | 10.0 | 0.00 | 0.00 | 0.00 | 81 | 1018.6 |
| 20260510073032 | 51 | 119 | 4.0 | 11.0 | 0.00 | 0.00 | 0.00 | 81 | 1018.5 |
| 20260510071533 | 51 | 44 | 2.0 | 10.0 | 0.00 | 0.00 | 0.00 | 81 | 1018.3 |
| 20260510070030 | 51 | 91 | 2.0 | 10.0 | 0.00 | 0.00 | 0.00 | 81 | 1018.0 |
| 20260510064533 | 51 | 161 | 3.0 | 8.0 | 0.00 | 0.00 | 0.00 | 81 | 1018.0 |
| 20260510063028 | 51 | 3 | 1.0 | 10.0 | 0.00 | 0.00 | 0.00 | 81 | 1018.0 |
| 20260510061530 | 51 | 165 | 3.0 | 15.0 | 0.00 | 0.00 | 0.00 | 80 | 1017.9 |
| 20260510060032 | 51 | 41 | 5.0 | 11.0 | 0.00 | 0.00 | 0.00 | 80 | 1017.8 |
| 20260510054531 | 52 | 93 | 2.0 | 10.0 | 0.00 | 0.00 | 0.00 | 79 | 1017.8 |
| 20260510053029 | 52 | 155 | 1.0 | 11.0 | 0.00 | 0.00 | 0.00 | 79 | 1017.7 |
| 20260510051528 | 52 | 6 | 2.0 | 13.0 | 0.00 | 0.00 | 0.00 | 79 | 1017.8 |
| 20260510050033 | 52 | 25 | 2.0 | 8.0 | 0.00 | 0.00 | 0.00 | 78 | 1017.7 |
| 20260510044540 | 52 | 86 | 3.0 | 13.0 | 0.00 | 0.00 | 0.00 | 78 | 1017.9 |
| 20260510043032 | 52 | 127 | 3.0 | 11.0 | 0.00 | 0.00 | 0.00 | 78 | 1017.8 |
| 20260510041529 | 52 | 131 | 3.0 | 13.0 | 0.00 | 0.00 | 0.00 | 78 | 1017.8 |
| 20260510040028 | 53 | 73 | 2.0 | 7.0 | 0.00 | 0.00 | 0.00 | 78 | 1017.8 |
| 20260510034532 | 53 | 88 | 2.0 | 6.0 | 0.00 | 0.00 | 0.00 | 78 | 1017.9 |
| 20260510033030 | 53 | 131 | 2.0 | 7.0 | 0.00 | 0.00 | 0.00 | 77 | 1017.9 |
| 20260510031532 | 53 | 91 | 2.0 | 11.0 | 0.00 | 0.00 | 0.00 | 77 | 1018.0 |
| 20260510030037 | 54 | 104 | 4.0 | 11.0 | 0.00 | 0.00 | 0.00 | 76 | 1018.0 |
| 20260510024528 | 54 | 101 | 5.0 | 9.0 | 0.00 | 0.00 | 0.00 | 75 | 1018.1 |
| 20260510023032 | 54 | 86 | 1.0 | 6.0 | 0.00 | 0.00 | 0.00 | 76 | 1018.1 |
| 20260510021533 | 54 | 83 | 3.0 | 6.0 | 0.00 | 0.00 | 0.00 | 77 | 1017.9 |
| 20260510020032 | 55 | 55 | 3.0 | 9.0 | 0.00 | 0.00 | 0.00 | 77 | 1017.8 |
| 20260510014529 | 55 | 82 | 2.0 | 9.0 | 0.00 | 0.00 | 0.00 | 78 | 1017.9 |
| 20260510013030 | 55 | 79 | 3.0 | 12.0 | 0.00 | 0.00 | 0.00 | 78 | 1017.9 |
| 20260510011530 | 55 | 89 | 4.0 | 9.0 | 0.00 | 0.00 | 0.00 | 77 | 1017.9 |
| 20260510010029 | 55 | 82 | 2.0 | 8.0 | 0.00 | 0.00 | 0.00 | 77 | 1017.9 |
| 20260510004532 | 56 | 136 | 1.0 | 9.0 | 0.00 | 0.00 | 0.00 | 78 | 1017.9 |
| 20260510003030 | 56 | 120 | 3.0 | 7.0 | 0.00 | 0.00 | 0.00 | 78 | 1017.8 |
| 20260510001532 | 56 | 81 | 2.0 | 8.0 | 0.00 | 0.00 | 0.00 | 79 | 1018.0 |
| 20260510000033 | 56 | 59 | 2.0 | 6.0 | 0.00 | 0.00 | 0.00 | 79 | 1018.0 |
| 20260509234532 | 56 | 50 | 3.0 | 10.0 | 0.00 | 0.00 | 0.00 | 79 | 1017.8 |
| 20260509233030 | 57 | 105 | 3.0 | 9.0 | 0.00 | 0.00 | 0.00 | 79 | 1017.8 |
| 20260509231535 | 57 | 91 | 4.0 | 12.0 | 0.00 | 0.00 | 0.00 | 79 | 1017.7 |
| 20260509230032 | 57 | 6 | 6.0 | 12.0 | 0.00 | 0.00 | 0.00 | 79 | 1017.7 |
| 20260509224538 | 57 | 99 | 4.0 | 9.0 | 0.00 | 0.00 | 0.00 | 79 | 1017.6 |
| 20260509223034 | 57 | 96 | 4.0 | 15.0 | 0.00 | 0.00 | 0.00 | 80 | 1017.6 |
| 20260509221531 | 57 | 329 | 3.0 | 10.0 | 0.00 | 0.00 | 0.00 | 80 | 1017.7 |
| 20260509220035 | 57 | 125 | 2.0 | 9.0 | 0.00 | 0.00 | 0.00 | 80 | 1017.6 |
| 20260509214532 | 57 | 79 | 2.0 | 10.0 | 0.00 | 0.00 | 0.00 | 80 | 1017.7 |
| 20260509213032 | 57 | 65 | 4.0 | 13.0 | 0.00 | 0.00 | 0.00 | 79 | 1017.7 |
| 20260509211537 | 58 | 141 | 2.0 | 10.0 | 0.00 | 0.00 | 0.00 | 79 | 1017.5 |
| 20260509210031 | 58 | 356 | 2.0 | 13.0 | 0.00 | 0.00 | 0.00 | 79 | 1017.5 |
| 20260509204530 | 58 | 11 | 2.0 | 9.0 | 0.00 | 0.00 | 0.00 | 79 | 1017.6 |
| 20260509203031 | 58 | 165 | 4.0 | 12.0 | 0.00 | 0.00 | 0.00 | 78 | 1017.6 |
| 20260509201530 | 58 | 28 | 4.0 | 12.0 | 0.00 | 0.00 | 0.00 | 78 | 1017.5 |
| 20260509200031 | 58 | 94 | 4.0 | 12.0 | 0.00 | 0.00 | 0.00 | 78 | 1017.4 |
| 20260509194532 | 59 | 42 | 3.0 | 12.0 | 0.00 | 0.00 | 0.00 | 78 | 1017.3 |
| 20260509193032 | 59 | 345 | 5.0 | 13.0 | 0.00 | 0.00 | 0.00 | 78 | 1017.3 |
| 20260509191534 | 59 | 34 | 3.0 | 12.0 | 0.00 | 0.00 | 0.00 | 78 | 1017.2 |
| 20260509190029 | 60 | 349 | 6.0 | 12.0 | 0.00 | 0.00 | 0.00 | 77 | 1017.1 |
| 20260509184533 | 60 | 16 | 5.0 | 13.0 | 0.00 | 0.00 | 0.00 | 77 | 1017.2 |
| 20260509183030 | 60 | 11 | 3.0 | 10.0 | 0.00 | 0.00 | 0.00 | 76 | 1017.0 |
| 20260509181537 | 60 | 274 | 5.0 | 13.0 | 0.00 | 0.00 | 0.00 | 76 | 1017.0 |
| 20260509180034 | 60 | 44 | 5.0 | 13.0 | 0.00 | 0.00 | 0.00 | 75 | 1016.7 |
| 20260509174532 | 60 | 311 | 7.0 | 11.0 | 0.00 | 0.00 | 0.00 | 75 | 1016.7 |